Change the Weather History Date:

Monday, October 10, 2011

  Actual Average Record
Temperature  
Mean Temperature 58 °F -  
Max Temperature 64 °F 56 °F 77 °F (2010)
Min Temperature 53 °F 36 °F 23 °F (1996)
Degree Days  
Heating Degree Days 6    
Growing Degree Days 8 (Base 50)    
Moisture  
Dew Point 53 °F    
Average Humidity 83    
Maximum Humidity 100    
Minimum Humidity 64    
Precipitation  
Precipitation 0.00 in - - ()
Sea Level Pressure  
Sea Level Pressure 29.92 in    
Wind  
Wind Speed 8 mph (SSE)    
Max Wind Speed 16 mph    
Max Gust Speed 22 mph    
Visibility 10 miles    
Events      
Averages and records for this station are not official NWS values.
T = Trace of Precipitation, MM = Missing Value Source: NWS Daily Summary

Daily Weather History Graph

Daily Weather History Graph

Search for Another Location

Airport or City:

Trip Planner

Search our weather history database for the weather conditions in past years. The results will help you decide how hot, cold, wet, or windy it might be!

Date:

Astronomy

Oct. 10, 2011 Rise Set
Actual Time 7:29 AM CDT 6:42 PM CDT
Civil Twilight 6:59 AM CDT 7:12 PM CDT
Nautical Twilight 6:24 AM CDT 7:47 PM CDT
Astronomical Twilight 5:49 AM CDT 8:22 PM CDT
Moon 5:46 PM CDT (10/10) 6:10 AM CDT (10/10)
Length of Visible Light 12h 13m
Length of Day
11h 12m
Waxing Gibbous, 98% of the Moon is Illuminated
Oct 10
Waxing Gibbous
Oct 11
Full
Oct 19
Last Quarter
Oct 26
New
Nov 2
First Quarter

Hourly Weather History & Observations

Time (CDT) Temp. Dew Point Humidity Pressure Visibility Wind Dir Wind Speed Gust Speed Precip Events Conditions
3:21 AM 57.2 °F 50.0 °F 77% 30.05 in 10.0 mi ESE 3.5 mph - N/A   Clear
6:21 AM 57.2 °F 50.0 °F 77% 30.01 in 10.0 mi SE 5.8 mph - N/A   Clear
7:41 AM 55.4 °F 50.0 °F 82% 29.99 in 10.0 mi SE 5.8 mph - N/A   Clear
8:01 AM 55.4 °F 50.0 °F 82% 29.99 in 10.0 mi SE 5.8 mph - N/A   Clear
8:21 AM 57.2 °F 50.0 °F 77% 29.99 in 10.0 mi SE 6.9 mph - N/A   Clear
8:41 AM 57.2 °F 50.0 °F 77% 29.98 in 10.0 mi SE 9.2 mph - N/A   Clear
9:01 AM 60.8 °F 50.0 °F 68% 29.98 in 10.0 mi SSE 11.5 mph 16.1 mph N/A   Clear
9:21 AM 59.0 °F 50.0 °F 72% 29.98 in 10.0 mi SSE 12.7 mph 16.1 mph N/A   Clear
9:41 AM 60.8 °F 50.0 °F 68% 29.98 in 10.0 mi SSE 12.7 mph 17.3 mph N/A   Clear
10:21 AM 60.8 °F 50.0 °F 68% 29.97 in 10.0 mi South 11.5 mph 16.1 mph N/A   Clear
10:41 AM 62.6 °F 51.8 °F 68% 29.96 in 10.0 mi SE 11.5 mph - N/A   Clear
11:21 AM 64.4 °F 51.8 °F 64% 29.96 in 10.0 mi SSE 12.7 mph 17.3 mph N/A   Scattered Clouds
12:01 PM 64.4 °F 51.8 °F 64% 29.97 in 10.0 mi South 12.7 mph 17.3 mph N/A   Overcast
12:21 PM 62.6 °F 53.6 °F 72% 29.96 in 10.0 mi SSW 16.1 mph - N/A   Overcast
12:41 PM 62.6 °F 53.6 °F 72% 29.96 in 10.0 mi South 11.5 mph 16.1 mph N/A   Overcast
1:01 PM 62.6 °F 53.6 °F 72% 29.95 in 10.0 mi South 10.4 mph - N/A   Overcast
1:41 PM 62.6 °F 53.6 °F 72% 29.94 in 10.0 mi South 10.4 mph - N/A   Overcast
2:01 PM 59.0 °F 55.4 °F 88% 29.93 in 7.0 mi South 6.9 mph - N/A   Overcast
2:36 PM 57.2 °F 55.4 °F 94% 29.92 in 10.0 mi SSE 6.9 mph - N/A   Mostly Cloudy
3:21 PM 57.2 °F 55.4 °F 94% 29.90 in 10.0 mi SSE 8.1 mph - N/A   Overcast
3:41 PM 57.2 °F 55.4 °F 94% 29.90 in 10.0 mi SSE 11.5 mph 16.1 mph N/A   Overcast
4:01 PM 59.0 °F 55.4 °F 88% 29.90 in 10.0 mi SE 10.4 mph 16.1 mph N/A   Mostly Cloudy
4:21 PM 59.0 °F 55.4 °F 88% 29.89 in 10.0 mi South 11.5 mph 21.9 mph N/A   Overcast
4:41 PM 60.8 °F 55.4 °F 82% 29.89 in 10.0 mi South 12.7 mph 20.7 mph N/A   Overcast
5:01 PM 60.8 °F 55.4 °F 82% 29.87 in 10.0 mi SSE 12.7 mph 17.3 mph N/A   Overcast
5:21 PM 60.8 °F 55.4 °F 82% 29.87 in 10.0 mi South 11.5 mph 19.6 mph N/A   Mostly Cloudy
5:41 PM 60.8 °F 55.4 °F 82% 29.87 in 10.0 mi SSE 9.2 mph - N/A   Overcast
6:21 PM 59.0 °F 55.4 °F 88% 29.86 in 10.0 mi SSE 6.9 mph - N/A   Mostly Cloudy
7:01 PM 57.2 °F 55.4 °F 94% 29.86 in 10.0 mi SSE 5.8 mph - N/A   Clear
7:21 PM 57.2 °F 55.4 °F 94% 29.86 in 10.0 mi SSE 6.9 mph - N/A   Clear
7:41 PM 57.2 °F 55.4 °F 94% 29.86 in 10.0 mi SSE 6.9 mph - N/A   Clear
8:01 PM 57.2 °F 55.4 °F 94% 29.86 in 10.0 mi SSE 8.1 mph - N/A   Clear
8:21 PM 55.4 °F 53.6 °F 94% 29.86 in 10.0 mi SSE 9.2 mph - N/A   Clear
8:41 PM 55.4 °F 53.6 °F 94% 29.86 in 10.0 mi SSE 9.2 mph - N/A   Clear
9:01 PM 55.4 °F 53.6 °F 94% 29.86 in 10.0 mi South 8.1 mph - N/A   Clear
9:41 PM 55.4 °F 53.6 °F 94% 29.86 in 10.0 mi South 5.8 mph - N/A   Clear
10:01 PM 53.6 °F 51.8 °F 94% 29.87 in 10.0 mi South 4.6 mph - N/A   Clear
10:21 PM 53.6 °F 53.6 °F 100% 29.87 in 10.0 mi South 5.8 mph - N/A   Clear